Regional Weather Roundup
Issued by NWS Goodland, KS

Home | Current Version | Previous Version | Text Only | Print | Product List | Glossary Off
Versions: 1 2 3 4 5 6 7 8 9 10 11 12 13 14 15 16 17 18 19 20 21 22 23 24 25 26 27 28 29 30 31 32 33 34 35 36 37 38 39 40 41 42 43 44 45 46 47 48 49 50

000
ASUS43 KGLD 061008
RWRGLD

GOODLAND FORECAST AREA HOURLY WEATHER ROUNDUP
NATIONAL WEATHER SERVICE GOODLAND KS
300 AM MST FRI MAR 06 2015

...OFFICIAL OBSERVATIONS...

CITY           SKY/WX    TMP DP  RH WIND       PRES   REMARKS
GOODLAND KS    CLEAR     25  21  85 W7        30.25F
HILL CITY KS   CLEAR     27  16  63 W7        30.25F
IMPERIAL NEB     N/A     27  17  66 W14       30.22F WCI  16
MCCOOK NEB     CLEAR     26  17  68 W13       30.23F WCI  15
AKRON CO       CLEAR     27  18  69 W12       30.22F WCI  17
BURLINGTON CO  CLEAR     26  20  77 W9        30.25F
LIMON CO       PTCLDY     8   3  80 N6        30.25F
$$

...UNOFFICIAL OBSERVATIONS...

CITY           SKY/WX    TMP DP  RH WIND       PRES   REMARKS
COLBY KS       CLEAR     25  25 100 SW8       30.25F
GOVE KS          N/A     26  32 100 MISG        N/A
NORTON KS      CLEAR     23  12  63 SW9       30.22S
SHARON SPRINGS   N/A     25  21  83 CALM        N/A
YUMA CO          N/A     23  17  77 W6          N/A
$$


USA.gov is the U.S. government's official web portal to all federal, state and local government web resources and services.